Vorticity
9 8 8 8 8 9 9 9 9 9 9 9 8 7 6 5 5 4 4 5 5 6 6 7 7 7 7 6 5 5 4 4 4 4 5 5 5 5 5 5 5 5 5 5 5 5 5 5 5 5 5 5 6 6 6 6 6 6 6 6 6 6 6 6 6 6 6 6 6 5 5 4 3 3 3 3 3 3 3 3 2 2 3 3 3 3 4 4 4 4 4 4 5 5 5 5 5 5 5 5 5 6 6
8 8 8 8 8 8 8 9 9 8 8 7 7 6 5 4 4 4 5 5 6 6 7 7 7 7 6 6 5 5 4 4 4 4 5 5 5 5 5 5 5 5 5 5 5 5 5 5 5 5 5 5 6 6 6 6 6 6 6 6 6 6 6 6 6 6 6 5 5 4 4 4 3 3 3 3 3 3 3 3 3 3 3 3 4 4 4 4 4 4 5 5 5 5 5 5 5 5 5 5 6 6 6
8 8 8 8 8 8 8 8 8 7 7 6 5 5 4 4 4 5 5 6 6 6 7 7 7 7 6 6 5 4 4 3 4 4 5 6 5 5 5 5 5 5 5 5 5 5 5 5 5 5 5 5 5 6 6 6 6 6 6 6 6 6 6 6 5 6 6 5 4 4 4 4 3 3 3 3 3 3 3 3 3 3 4 4 4 4 4 4 4 4 4 4 4 5 5 5 5 5 6 6 6 6 6
8 8 8 8 8 7 7 7 7 6 6 5 5 4 4 4 4 5 5 6 6 7 7 7 7 6 6 5 5 4 4 4 4 5 5 6 5 5 5 5 5 5 5 5 5 5 5 5 5 5 5 5 5 5 5 6 6 6 6 6 6 6 6 6 5 5 5 4 4 4 4 4 3 3 3 3 3 3 3 3 3 4 4 4 4 4 4 4 4 4 4 4 4 4 5 5 5 6 6 6 6 6 6
8 8 8 7 7 7 7 6 6 6 5 5 4 4 4 4 5 5 6 6 7 7 7 7 6 6 6 5 5 4 4 4 4 5 6 6 6 5 5 5 5 5 5 5 5 5 5 5 5 5 5 5 5 5 5 6 6 6 6 6 6 6 6 6 6 5 5 4 4 4 4 4 3 3 3 3 3 3 3 4 4 4 4 4 4 4 4 4 4 4 4 4 4 5 5 5 6 6 6 6 6 6 6
8 8 7 7 7 7 6 6 5 5 5 4 4 4 4 5 5 6 6 7 7 7 7 6 6 6 5 5 5 4 4 4 4 5 6 6 6 5 5 5 5 5 5 5 5 5 5 5 5 5 5 5 5 5 5 6 6 6 6 6 6 6 6 6 6 5 5 4 4 4 4 3 3 3 3 3 3 4 4 4 4 4 4 4 4 4 4 4 4 4 4 4 5 5 5 5 6 6 6 6 6 6 6
8 7 7 7 6 6 6 5 5 5 4 4 4 4 5 5 6 6 6 7 7 7 7 6 6 6 5 5 5 4 3 4 4 5 6 6 6 5 5 5 5 5 4 5 5 5 5 4 4 5 5 5 5 6 5 6 6 6 6 6 6 6 5 6 6 5 4 4 3 4 4 4 3 3 3 3 4 4 4 4 4 4 4 4 4 4 4 4 4 4 4 5 5 5 5 6 6 6 6 6 6 6 6
7 7 7 6 6 6 5 5 5 5 4 4 5 5 5 6 6 6 7 7 7 7 6 6 6 5 5 5 4 4 3 4 5 6 6 6 6 5 5 5 5 5 4 5 5 5 4 4 4 5 5 5 6 6 5 6 6 6 6 6 6 6 5 5 5 5 4 3 3 4 4 4 3 3 3 3 4 4 4 4 4 4 4 4 4 4 4 4 4 4 5 5 5 5 5 5 5 6 6 6 6 6 6
7 6 6 6 6 6 5 5 5 5 5 5 5 5 6 6 6 7 7 7 7 6 6 6 5 5 5 5 4 4 4 4 5 6 6 6 6 5 5 5 5 5 4 4 5 4 4 4 5 5 5 5 6 6 5 6 6 6 6 6 6 6 5 5 5 5 4 3 3 4 4 4 3 3 3 4 4 4 4 4 4 4 4 4 4 4 4 4 5 5 5 5 5 5 5 5 5 6 6 6 6 6 6
6 5 5 5 5 5 5 5 5 5 5 5 6 6 6 6 7 7 7 7 7 6 6 5 5 5 5 5 4 4 4 5 5 6 6 6 5 5 5 5 5 4 4 4 4 4 4 4 5 5 5 5 6 5 5 6 6 6 6 5 6 6 5 5 5 5 4 4 4 4 4 4 3 3 3 4 4 4 4 4 4 4 4 4 4 4 4 4 5 5 5 5 5 5 5 5 6 6 6 6 6 6 6
6 5 5 5 5 5 5 5 5 5 5 5 6 6 7 7 7 7 7 7 6 6 5 5 5 5 5 5 4 4 4 5 6 6 6 6 5 5 5 5 5 4 4 4 4 4 4 4 5 5 5 5 5 5 6 6 6 6 6 6 6 5 5 5 5 5 5 4 4 4 4 4 3 3 3 3 4 4 4 4 4 4 4 4 4 4 4 4 5 5 5 5 5 5 5 5 6 6 6 6 6 6 6
6 5 5 5 5 5 5 5 5 5 5 6 6 7 7 7 7 7 7 7 6 6 5 5 5 5 5 5 4 4 4 5 6 6 6 6 5 5 5 5 5 4 4 4 4 4 4 4 4 5 5 6 6 5 6 6 6 6 6 6 5 5 5 4 5 5 5 5 4 4 4 3 3 3 3 3 4 4 4 4 4 4 4 4 4 4 4 4 5 5 5 5 5 5 5 5 5 5 6 6 6 6 6
6 5 5 5 5 5 5 5 5 5 6 6 7 7 7 8 8 8 7 6 6 5 5 5 5 5 5 4 4 4 5 6 6 6 6 5 5 5 5 5 5 4 4 4 4 4 4 4 4 5 5 6 6 5 5 6 6 6 6 6 5 5 4 4 5 5 5 5 4 4 4 3 3 3 3 4 4 4 4 4 4 4 4 4 4 4 4 4 5 5 5 5 5 5 5 5 5 5 6 6 6 6 6
6 6 5 5 5 5 5 5 5 6 6 7 7 7 8 8 8 8 7 6 5 5 5 5 5 5 5 4 4 4 5 6 6 6 6 5 5 5 5 5 5 5 4 4 4 4 4 4 4 5 5 6 5 5 5 6 6 6 6 6 5 5 4 4 4 5 5 5 5 4 3 3 3 3 3 4 4 4 4 4 4 4 4 4 4 4 4 5 5 5 5 5 5 5 5 5 5 6 6 6 6 6 6
6 5 5 5 5 5 5 6 6 6 7 7 7 8 8 8 8 8 7 6 5 5 5 5 5 5 4 4 4 5 6 6 6 6 6 5 5 5 5 5 5 5 5 4 4 4 4 4 4 5 5 5 5 5 5 6 6 6 6 6 5 5 4 4 4 5 6 5 4 4 3 3 3 3 3 4 4 4 4 4 4 4 4 4 4 4 5 5 5 5 5 5 5 5 5 5 6 6 6 6 6 6 6
5 5 5 5 5 6 6 6 6 7 7 7 8 8 8 8 8 7 6 5 5 5 5 5 4 4 4 4 5 5 6 6 6 6 6 5 5 5 5 5 5 4 4 4 4 4 4 4 4 5 5 5 5 5 5 6 6 7 6 6 5 5 4 4 4 5 6 5 4 4 3 3 3 4 4 4 4 4 4 4 4 4 4 4 4 5 5 5 5 5 5 5 5 5 6 6 6 6 6 6 6 6 6
5 5 5 5 6 6 6 7 7 7 7 7 8 8 8 8 8 7 6 5 4 4 5 5 4 4 4 5 5 6 6 7 6 6 5 5 5 5 5 5 4 4 4 4 4 4 4 4 5 5 5 5 5 5 5 6 6 7 7 6 5 5 4 4 4 5 5 5 4 4 4 3 4 4 4 4 4 4 4 4 4 4 4 5 5 5 5 5 5 5 6 6 6 6 6 6 6 6 6 6 6 6 6
5 5 5 6 6 6 7 7 8 8 8 8 8 8 8 8 8 7 5 4 4 4 5 4 4 4 5 5 6 6 7 7 6 6 5 5 5 5 5 5 4 4 4 4 4 4 4 4 5 5 5 5 5 5 5 6 6 7 7 7 6 5 4 4 4 5 5 5 4 4 4 4 4 4 4 4 4 4 4 4 4 4 4 5 5 5 5 5 5 5 6 6 6 6 6 6 6 6 6 6 6 6 6
5 5 6 6 6 6 7 8 8 8 8 8 8 8 8 8 7 6 4 4 4 4 5 4 5 5 5 5 6 6 7 6 6 5 5 5 5 5 5 5 4 4 4 4 4 4 4 4 5 5 5 5 5 5 6 6 7 7 7 7 6 5 4 4 4 5 5 5 4 4 4 4 4 4 4 4 4 4 4 4 4 4 4 5 5 5 5 5 5 6 6 6 6 6 6 6 6 6 6 6 6 6 6
5 6 6 6 6 7 7 8 8 8 8 8 8 8 8 7 6 5 4 3 4 4 5 5 5 5 5 6 6 6 7 6 6 5 5 5 5 5 5 4 4 4 4 5 5 5 5 4 4 5 5 5 5 6 6 6 6 7 7 7 6 5 4 4 4 4 5 4 4 4 4 4 4 4 4 4 4 4 4 4 4 4 4 4 4 4 5 5 5 6 6 6 6 6 6 6 6 6 6 6 6 6 6
6 6 6 6 6 7 7 8 9 9 8 8 8 8 8 6 5 4 3 3 4 5 5 5 5 5 6 6 6 7 7 6 6 5 5 5 5 5 5 5 4 4 5 5 5 5 4 4 4 5 5 5 6 6 6 6 6 6 7 7 6 6 5 4 4 4 4 4 4 4 3 4 4 4 4 4 4 4 4 4 4 4 4 4 4 4 5 5 6 6 6 6 6 6 6 6 6 6 6 6 6 6 6
6 6 6 6 6 7 8 8 9 9 8 8 8 8 7 6 5 4 4 3 4 5 5 5 5 6 6 6 7 7 7 6 5 5 5 5 5 5 5 5 5 5 5 5 5 5 4 4 5 5 6 6 5 5 6 6 6 6 6 6 6 6 5 5 5 4 4 4 4 3 3 3 3 3 3 4 4 4 4 4 4 4 4 4 4 4 5 5 6 6 6 6 6 6 6 6 6 6 6 6 6 6 6
6 6 6 6 6 7 8 9 9 9 9 8 8 8 7 5 5 4 4 3 4 4 5 5 6 6 6 7 7 7 6 6 6 5 5 5 5 5 5 5 5 5 5 5 5 5 5 5 5 5 6 5 5 5 6 6 6 6 6 6 6 6 5 5 5 5 4 4 4 3 3 3 3 3 3 3 3 3 3 3 3 3 4 4 4 5 5 6 6 6 6 6 6 6 6 6 6 6 6 6 6 6 6
6 6 6 6 6 7 8 9 9 9 9 8 8 8 7 6 5 4 3 3 4 4 5 5 6 6 6 7 7 7 6 6 6 5 5 5 5 5 5 5 5 5 5 5 5 5 5 5 5 6 6 5 5 5 6 6 6 6 6 6 6 5 5 5 5 5 5 4 4 3 3 3 3 3 3 3 3 3 3 3 3 4 4 4 5 5 6 6 6 6 6 6 6 6 6 6 6 6 6 6 6 5 5
6 6 6 6 7 7 8 8 9 9 9 9 8 8 7 6 5 4 3 3 4 5 5 6 6 6 6 7 7 7 7 6 6 6 6 5 5 5 5 5 5 5 5 5 5 5 5 5 5 6 7 5 5 5 6 6 6 6 6 6 6 5 5 5 5 5 5 5 4 4 3 3 3 3 3 3 3 3 3 3 3 4 4 5 5 6 6 6 6 6 6 6 6 6 6 6 6 6 6 6 5 5 5
6 6 6 6 7 7 8 8 9 9 9 9 8 8 7 6 5 4 3 3 4 5 6 6 6 6 7 7 7 7 7 7 6 6 6 6 5 5 5 5 5 5 5 5 5 5 5 5 6 6 7 5 5 5 6 6 6 6 6 6 5 5 5 5 5 5 5 5 4 4 3 3 3 3 3 3 3 3 3 3 3 4 4 5 5 6 6 6 6 6 6 6 6 6 6 6 6 6 6 5 5 5 5
6 6 7 7 7 7 8 8 9 9 9 9 8 8 7 6 5 4 3 3 4 5 5 6 6 7 7 7 7 7 7 7 6 6 6 6 6 5 5 5 5 5 5 5 5 5 5 5 6 6 7 5 5 6 6 6 6 6 6 5 5 5 5 5 5 5 5 5 4 4 4 3 3 3 3 3 3 3 3 3 4 4 5 5 5 5 6 6 6 6 6 6 6 6 6 6 6 6 5 5 5 5 5
7 7 7 7 7 7 8 8 9 9 9 9 8 8 7 6 4 3 3 3 4 5 5 6 6 7 6 7 7 6 6 6 6 6 6 6 5 5 5 5 5 5 5 5 5 5 5 5 5 6 7 6 5 6 6 6 6 6 6 5 5 5 5 5 5 5 5 4 4 4 4 4 4 4 4 3 3 3 3 4 4 4 5 5 5 5 6 6 6 6 6 6 6 6 6 6 6 5 5 5 5 5 4
7 7 7 7 7 7 8 8 9 9 9 8 8 8 8 6 4 3 3 3 4 5 6 6 6 6 6 6 6 6 6 6 6 6 6 6 5 5 5 5 5 5 5 5 5 5 5 5 5 6 7 6 6 6 7 7 7 6 6 5 5 5 5 5 5 5 5 4 4 4 4 4 4 4 4 4 4 4 4 4 4 4 4 5 5 6 6 6 6 6 6 6 6 6 6 6 5 5 5 5 4 4 4
8 8 8 7 7 7 7 8 8 8 9 9 9 8 7 6 4 3 3 3 4 5 6 6 6 6 6 6 6 6 7 6 6 6 6 6 6 5 6 6 5 5 5 5 5 5 5 5 5 6 6 6 6 6 7 7 7 7 6 6 5 5 5 5 5 5 5 5 5 4 4 4 4 4 4 4 4 4 4 4 4 4 5 5 5 6 6 6 6 6 6 6 6 6 5 5 5 5 5 4 4 4 4
8 8 8 7 7 7 7 8 8 8 9 9 9 8 7 5 4 3 3 3 4 5 5 6 6 6 6 6 6 7 6 6 6 6 5 6 6 5 6 6 6 5 6 5 5 5 5 5 5 6 6 6 6 6 7 7 7 7 7 6 6 5 5 5 5 5 5 5 5 4 4 4 4 4 4 4 4 4 4 4 4 4 5 5 6 6 6 6 6 6 6 6 5 5 5 5 5 5 4 4 4 4 4
8 8 8 7 7 6 7 8 8 8 10 10 9 8 6 4 3 3 3 4 4 5 5 6 6 6 6 6 7 6 6 6 6 5 5 5 5 6 6 6 6 6 6 5 5 5 5 6 6 6 6 7 7 7 6 7 7 7 7 6 6 5 5 5 5 5 5 5 5 4 4 4 4 4 4 4 4 4 4 4 5 5 5 6 6 6 6 6 6 6 5 5 5 5 5 5 5 4 4 4 4 4 4
8 8 7 7 6 7 7 8 8 8 10 10 9 7 6 5 4 3 3 4 5 5 5 6 6 6 6 6 6 6 6 6 5 5 5 5 5 5 5 6 6 6 6 6 6 6 5 6 6 6 6 7 7 7 7 7 7 7 7 7 6 6 6 5 5 5 5 5 5 4 4 4 4 4 4 4 4 4 5 5 5 6 6 6 6 6 6 6 5 5 5 5 5 5 5 5 5 5 4 4 4 5 5
7 7 7 7 6 7 8 8 8 8 10 10 9 7 6 5 4 3 3 4 4 5 5 6 6 6 6 6 5 5 5 5 5 5 5 5 5 5 5 6 6 6 6 6 6 6 6 6 6 6 6 6 7 7 7 7 7 7 7 7 7 6 6 6 6 6 5 5 5 5 4 4 4 4 4 4 5 5 5 5 6 6 6 6 6 6 5 5 5 5 5 5 5 5 5 5 5 5 5 5 5 5 5
7 7 7 7 7 7 8 7 7 8 9 9 9 8 6 5 4 4 3 3 4 4 5 5 5 5 5 5 5 5 5 5 5 5 5 5 5 5 5 5 5 5 6 6 6 6 5 6 6 6 6 6 7 7 7 7 7 6 6 7 7 7 7 7 7 6 6 6 6 5 5 5 5 5 5 5 5 5 5 6 6 6 6 6 5 5 5 5 5 5 5 5 5 5 5 5 5 5 5 5 5 5 5
7 7 7 7 7 7 7 7 7 8 9 9 9 8 7 6 5 4 3 3 3 4 4 4 5 5 4 4 5 5 5 5 5 5 5 5 5 5 5 5 5 5 6 6 6 5 6 6 6 6 6 6 7 7 7 7 7 6 6 7 7 7 7 7 7 7 7 7 6 6 6 5 5 5 5 5 5 5 6 6 6 6 6 5 5 5 5 5 5 5 5 5 5 5 5 5 5 5 5 5 5 5 5
7 7 7 7 7 7 7 7 8 8 9 9 9 8 8 6 5 4 3 3 3 4 4 4 4 4 4 4 5 5 5 5 5 5 5 5 5 5 5 5 5 5 6 6 5 5 6 6 6 6 6 6 6 7 7 7 7 7 7 7 7 7 7 8 8 8 7 7 7 7 6 6 6 5 5 5 6 6 6 6 6 6 5 5 5 5 5 5 5 5 5 5 5 5 6 6 5 5 5 5 5 5 5
6 6 6 7 7 7 7 7 8 9 9 9 9 9 8 6 5 4 3 3 3 4 3 4 4 4 4 5 5 5 5 5 5 5 5 5 5 5 6 5 5 5 6 5 5 6 6 6 6 6 6 6 7 7 6 7 7 7 7 7 7 7 7 8 8 8 7 7 7 7 6 6 6 6 6 6 6 6 6 6 6 6 5 5 5 5 5 5 5 5 5 6 6 6 6 6 6 5 5 5 5 6 6
6 6 6 6 7 7 7 7 8 9 9 9 10 9 8 6 5 4 3 3 3 3 3 4 4 4 5 5 5 5 5 5 5 5 5 5 5 5 5 5 5 6 6 5 5 6 6 6 6 6 6 7 7 7 7 7 7 7 7 7 7 7 8 8 8 7 7 7 7 7 6 6 6 6 6 6 6 6 6 6 6 5 5 5 5 5 5 5 5 6 6 6 6 6 6 6 6 6 6 6 6 6 6
6 6 6 6 6 7 6 7 8 9 9 10 10 9 8 7 5 5 4 3 3 3 3 3 3 4 5 5 5 5 5 5 5 5 5 5 5 5 5 5 5 6 6 5 6 6 6 6 6 6 6 7 6 7 7 7 7 7 7 8 8 8 8 8 7 7 7 7 7 7 6 6 6 6 6 6 6 6 6 6 5 5 5 5 5 5 5 5 6 6 6 7 7 7 6 6 6 6 6 6 6 6 6
5 6 6 6 6 6 6 7 8 8 9 9 9 9 9 8 7 5 4 3 3 3 3 3 4 4 4 4 4 4 5 5 5 5 5 5 5 5 5 5 6 6 6 6 6 6 6 6 6 6 6 6 6 7 7 7 7 7 7 8 8 8 8 8 8 7 7 7 7 7 6 6 6 6 6 6 6 6 6 6 5 5 5 5 5 5 6 6 6 7 7 7 7 7 6 6 6 6 6 6 6 6 6
5 5 6 6 6 6 6 7 8 8 9 9 9 9 9 9 7 5 4 3 3 3 3 4 4 4 4 4 4 4 4 5 5 5 5 6 6 5 5 6 6 6 6 6 6 6 6 6 6 6 6 6 7 7 7 7 7 7 7 8 8 8 8 8 8 8 8 8 7 7 7 6 6 6 6 6 6 6 6 6 5 5 5 5 5 6 6 7 7 7 7 7 7 7 6 6 6 6 6 6 6 6 6
5 6 6 6 6 6 7 7 8 8 9 9 9 9 9 9 7 6 5 4 3 3 3 3 4 4 4 4 4 4 4 5 5 6 6 6 6 6 6 6 6 6 6 6 6 6 6 6 6 6 6 6 7 7 7 7 7 7 7 8 8 8 8 8 8 8 8 8 7 7 7 7 6 6 6 6 6 6 6 5 5 5 5 6 6 7 7 8 8 8 7 7 7 6 6 6 6 6 6 6 6 6 6
5 6 6 6 6 6 7 7 8 8 8 8 9 9 9 8 7 7 6 5 4 3 3 3 4 4 4 4 4 4 4 4 5 5 6 6 6 6 6 6 6 6 6 6 6 6 6 6 6 6 6 7 7 7 7 7 7 7 7 8 8 8 8 8 8 8 8 7 7 7 7 7 7 6 6 6 6 5 5 5 5 5 6 6 7 7 8 8 8 7 7 6 6 6 6 6 6 5 5 6 6 6 7
5 6 6 6 6 6 7 7 8 8 8 8 8 9 9 8 8 8 7 6 5 4 3 3 4 4 4 3 3 3 4 4 5 5 5 6 6 6 6 6 6 6 6 6 6 6 6 6 6 6 6 7 7 7 7 7 7 7 8 8 8 8 8 8 8 8 8 7 7 7 7 7 7 6 6 6 5 5 5 5 6 6 6 7 8 8 8 8 7 7 6 6 5 5 5 5 5 5 6 6 7 7 7
5 6 6 6 6 6 7 7 8 8 8 8 8 9 9 9 9 9 8 6 5 4 4 4 4 4 4 4 3 3 4 5 5 5 5 6 6 6 6 7 7 6 6 6 6 6 6 6 6 6 6 7 7 7 7 7 7 8 8 8 8 8 8 8 8 7 7 7 7 7 6 6 6 6 6 5 5 5 6 6 6 7 7 8 8 8 8 7 7 6 5 5 5 5 5 5 6 6 6 7 7 7 7
6 6 6 6 6 6 7 7 8 8 8 8 8 9 9 10 10 9 8 7 5 5 4 4 4 4 4 4 4 4 5 5 5 5 5 6 6 6 6 7 7 7 7 6 6 6 6 6 6 7 7 7 7 7 7 7 7 8 8 8 8 8 8 8 7 7 7 7 7 6 6 6 6 5 5 5 6 6 6 7 7 8 8 9 8 8 7 6 5 5 4 5 5 5 5 6 6 6 7 7 7 7 7
6 6 6 6 6 6 6 7 7 8 8 8 9 9 10 10 10 10 9 7 6 5 4 4 4 4 4 4 5 5 5 5 5 5 5 6 6 6 6 7 7 7 7 7 6 6 6 6 6 7 7 7 7 7 8 7 7 7 7 7 7 8 8 7 7 7 7 6 6 6 6 5 5 5 5 6 6 7 7 8 9 9 9 8 8 7 6 5 4 4 4 4 5 5 6 6 6 7 7 7 7 7 6
6 6 6 6 6 6 6 6 7 8 8 8 9 10 10 10 10 10 8 7 6 5 4 4 4 4 4 4 5 5 5 5 5 5 6 6 6 7 7 7 7 7 7 7 7 7 7 7 7 7 7 7 7 8 8 7 7 7 7 7 7 7 7 7 7 7 6 6 6 6 6 6 6 6 6 7 7 8 9 9 9 9 9 8 6 5 4 3 3 3 4 5 5 6 6 7 7 7 7 7 6 6 5
6 6 6 6 6 6 6 7 7 8 8 8 9 10 10 11 10 9 8 7 6 5 4 5 5 5 4 4 5 5 6 6 6 6 7 7 7 7 8 8 8 7 7 7 7 7 7 7 7 7 7 7 8 8 7 7 7 7 7 7 7 7 7 7 7 6 6 6 6 6 6 6 6 7 7 8 9 9 9 9 9 9 8 6 5 4 3 3 3 4 5 6 6 7 7 7 7 7 6 6 5 5 5
6 6 6 6 6 6 7 7 8 8 8 8 9 9 11 11 11 10 8 7 6 6 5 5 5 5 5 4 5 5 6 6 6 6 7 7 7 7 8 8 7 7 6 7 7 7 7 7 7 7 8 8 8 7 7 7 7 7 7 7 7 7 7 6 6 6 6 6 6 6 6 7 7 8 8 9 9 10 10 9 8 7 6 5 4 4 4 4 5 6 7 7 7 8 8 7 7 6 5 5 5 5 4
6 6 6 6 7 7 7 7 8 8 8 8 8 10 11 12 11 10 8 7 7 6 6 5 5 5 6 5 5 6 7 6 7 7 7 7 7 7 7 7 7 7 8 8 8 7 5 6 7 8 8 8 7 7 6 7 7 7 7 7 7 7 6 6 6 6 6 6 7 7 7 8 8 9 9 9 10 9 9 8 7 6 5 4 4 4 5 6 7 8 8 8 8 8 7 6 6 5 5 5 4 5 5
7 6 6 7 7 8 8 8 8 8 8 8 9 10 11 12 11 10 8 8 7 7 7 6 5 5 5 6 6 6 7 6 6 7 7 7 7 7 8 8 8 8 8 7 7 6 5 6 7 8 9 7 6 6 7 7 7 7 7 7 7 6 6 6 6 6 7 7 7 7 8 8 8 9 9 9 9 9 8 7 6 5 4 4 5 6 7 8 9 9 9 8 8 7 6 5 5 4 4 4 5 5 5
7 7 7 7 8 8 8 8 8 8 9 9 9 10 11 11 11 10 8 8 8 7 6 6 6 5 5 7 7 7 6 6 7 7 7 8 8 7 7 7 7 7 7 6 5 4 5 7 8 8 8 6 6 6 7 7 7 6 6 7 6 6 6 6 6 7 7 7 7 7 8 8 8 9 9 9 8 8 7 6 5 4 4 5 6 7 9 9 9 9 8 7 6 6 5 5 4 4 5 5 5 6 6
8 8 8 8 8 8 8 8 8 8 9 9 9 10 11 11 10 9 8 8 7 7 6 6 6 6 6 6 7 7 6 7 7 8 8 8 9 9 7 7 7 7 7 7 7 7 8 8 7 7 7 6 7 7 7 7 7 7 7 7 7 7 7 7 7 7 7 7 7 8 8 8 8 9 9 9 8 7 6 5 5 5 5 6 7 9 9 9 9 8 7 6 5 5 4 4 5 5 5 6 6 7 7
8 8 8 8 9 9 9 8 9 9 9 10 10 11 11 11 10 9 8 8 7 7 6 6 6 7 7 7 7 7 8 8 8 8 8 8 8 9 9 8 7 6 6 6 6 5 5 6 5 4 5 5 6 7 7 7 7 7 7 7 7 7 7 7 7 7 7 7 7 8 8 9 9 9 8 7 6 5 5 4 4 5 6 7 8 9 9 8 7 7 6 5 5 4 5 5 5 6 6 7 7 7 7
8 8 8 9 9 9 9 9 9 10 10 10 11 11 11 11 10 9 8 8 7 7 7 6 7 8 9 10 9 9 9 9 9 9 8 8 8 8 9 9 9 8 7 4 4 4 6 6 6 6 7 6 6 6 6 7 8 8 8 7 7 7 7 7 7 7 7 7 7 8 8 9 9 8 7 6 5 4 3 4 4 5 6 7 7 8 7 7 6 6 5 5 5 5 5 6 7 7 7 7 7 7 6
8 8 8 9 9 9 10 10 11 11 11 11 11 11 11 10 10 9 8 8 7 7 8 8 9 10 11 11 12 11 10 9 9 10 10 9 8 8 7 8 8 9 11 10 8 6 6 7 8 8 8 7 7 6 7 7 8 8 8 7 7 7 7 7 7 7 7 8 8 8 9 9 8 8 7 5 4 3 3 3 4 5 6 6 7 7 6 6 6 5 5 5 5 6 7 7 8 8 8 7 7 6 6
9 9 8 9 9 10 11 11 12 12 12 11 11 11 11 10 10 9 8 8 8 8 9 10 11 11 11 12 12 12 10 10 9 10 10 9 8 8 7 7 7 8 9 9 9 9 6 7 7 7 7 7 7 7 7 8 7 7 7 7 7 7 7 7 7 7 7 8 8 8 8 8 7 6 6 5 4 3 2 3 4 5 6 6 6 6 6 5 5 5 5 5 6 7 8 8 8 8 8 7 6 6 5
9 9 9 9 9 10 11 12 13 12 12 11 11 11 11 10 10 10 9 10 10 10 11 11 12 12 12 11 11 11 10 10 10 9 9 8 8 8 8 8 8 8 8 8 8 8 9 8 7 6 8 7 7 8 8 8 7 6 6 6 6 6 6 7 7 7 8 8 8 8 7 7 6 6 5 4 3 3 2 3 4 5 6 6 6 6 5 5 5 5 5 6 7 8 8 8 8 8 8 7 6 5 5
9 9 9 9 10 10 12 12 12 12 11 11 10 10 11 11 11 11 11 11 11 12 12 11 11 11 11 11 11 10 10 9 9 9 9 8 8 8 8 9 9 8 8 8 8 7 8 8 8 8 8 8 8 7 7 7 7 6 6 6 6 6 6 7 7 8 8 8 8 8 7 7 6 6 5 4 3 3 2 3 5 6 7 7 6 6 5 5 5 6 6 7 8 8 8 8 8 8 7 6 6 5 5
Height
3126 3126 3126 3127 3128 3128 3129 3130 3131 3131 3132 3133 3133 3134 3134 3135 3135 3136 3136 3137 3138 3138 3139 3139 3140 3140 3141 3141 3141 3142 3142 3143 3143 3143 3144 3144 3144 3145 3145 3145 3145 3145 3145 3145 3145 3146 3146 3146 3146 3146 3146 3146 3146 3146 3146 3146 3146 3146 3146 3146 3146 3146 3146 3146 3146 3146 3146 3146 3146 3146 3146 3146 3146 3146 3146 3146 3146 3146 3146 3146 3146 3146 3145 3145 3145 3145 3145 3145 3145 3144 3144 3144 3143 3143 3143 3142 3142 3141 3141 3141 3140 3140 3140
3125 3126 3126 3127 3127 3128 3129 3130 3130 3131 3132 3132 3133 3133 3134 3134 3135 3135 3136 3136 3137 3137 3138 3139 3139 3140 3140 3141 3141 3142 3142 3142 3143 3143 3144 3144 3144 3144 3144 3145 3145 3145 3145 3145 3145 3145 3145 3145 3146 3146 3146 3146 3146 3146 3146 3146 3146 3146 3146 3146 3146 3146 3146 3146 3146 3146 3146 3146 3146 3146 3146 3146 3146 3146 3146 3146 3146 3146 3146 3146 3146 3145 3145 3145 3145 3145 3145 3145 3144 3144 3144 3143 3143 3143 3142 3142 3141 3141 3141 3140 3140 3140 3139
3125 3125 3126 3126 3127 3128 3128 3129 3130 3130 3131 3132 3132 3133 3133 3134 3134 3135 3135 3136 3136 3137 3137 3138 3139 3140 3140 3140 3141 3141 3142 3142 3142 3143 3143 3143 3144 3144 3144 3144 3145 3145 3145 3145 3145 3145 3145 3145 3145 3145 3145 3145 3146 3146 3146 3146 3145 3145 3145 3146 3146 3145 3145 3146 3146 3146 3146 3146 3146 3146 3146 3146 3146 3146 3146 3146 3146 3146 3146 3146 3145 3145 3145 3145 3145 3145 3144 3144 3144 3144 3143 3143 3143 3142 3142 3141 3141 3141 3140 3140 3140 3139 3139
3124 3125 3125 3126 3127 3127 3128 3129 3130 3130 3131 3131 3132 3132 3133 3133 3134 3134 3135 3135 3136 3136 3137 3138 3138 3139 3140 3140 3140 3141 3141 3142 3142 3143 3143 3143 3143 3144 3144 3144 3144 3144 3144 3145 3145 3145 3145 3145 3145 3145 3145 3145 3145 3145 3145 3145 3145 3145 3145 3145 3145 3145 3145 3145 3146 3146 3146 3146 3146 3146 3146 3146 3146 3146 3146 3146 3146 3146 3146 3145 3145 3145 3145 3145 3145 3145 3144 3144 3144 3144 3143 3143 3142 3142 3142 3141 3141 3140 3140 3140 3139 3139 3138
3124 3125 3125 3126 3126 3127 3128 3128 3129 3130 3130 3131 3131 3132 3132 3132 3133 3134 3134 3135 3135 3136 3137 3137 3138 3139 3139 3140 3140 3140 3141 3141 3142 3142 3142 3143 3143 3143 3144 3144 3144 3144 3144 3144 3145 3145 3145 3145 3145 3145 3145 3145 3145 3145 3145 3145 3145 3145 3145 3145 3145 3145 3145 3145 3146 3146 3146 3146 3146 3146 3146 3146 3146 3146 3146 3146 3146 3146 3145 3145 3145 3145 3145 3145 3145 3144 3144 3144 3144 3143 3143 3143 3142 3142 3141 3141 3140 3140 3140 3139 3139 3138 3138
3123 3124 3125 3125 3126 3127 3127 3128 3129 3129 3130 3130 3131 3131 3131 3132 3132 3133 3134 3134 3135 3135 3136 3137 3137 3138 3139 3139 3140 3140 3140 3141 3141 3142 3142 3142 3143 3143 3143 3143 3144 3144 3144 3144 3144 3144 3145 3145 3145 3145 3145 3145 3145 3145 3145 3145 3145 3145 3145 3145 3145 3145 3145 3145 3145 3145 3145 3146 3146 3146 3146 3146 3146 3146 3146 3146 3146 3145 3145 3145 3145 3145 3145 3144 3144 3144 3144 3144 3143 3143 3143 3142 3142 3141 3141 3140 3140 3140 3139 3139 3138 3138 3137
3123 3123 3124 3125 3125 3126 3127 3127 3128 3129 3129 3130 3130 3130 3131 3131 3132 3132 3133 3134 3135 3135 3136 3136 3137 3138 3138 3139 3139 3140 3140 3141 3141 3141 3142 3142 3142 3142 3143 3143 3143 3143 3143 3144 3144 3144 3144 3144 3144 3144 3145 3145 3145 3145 3145 3145 3145 3145 3145 3145 3145 3145 3145 3145 3145 3145 3145 3145 3146 3146 3146 3146 3146 3146 3146 3146 3145 3145 3145 3145 3145 3145 3144 3144 3144 3144 3144 3143 3143 3143 3142 3142 3141 3141 3141 3140 3140 3139 3139 3138 3138 3137 3137
3122 3123 3124 3124 3125 3125 3126 3127 3127 3128 3129 3129 3130 3130 3130 3131 3131 3132 3132 3133 3134 3135 3135 3136 3137 3137 3138 3139 3139 3140 3140 3140 3141 3141 3141 3141 3142 3142 3142 3143 3143 3143 3143 3143 3144 3144 3144 3144 3144 3144 3144 3144 3144 3144 3144 3145 3145 3145 3145 3145 3145 3145 3145 3145 3145 3145 3145 3145 3145 3145 3145 3146 3146 3146 3145 3145 3145 3145 3145 3145 3145 3144 3144 3144 3144 3143 3143 3143 3143 3142 3142 3141 3141 3140 3140 3140 3139 3139 3138 3138 3137 3137 3136
3121 3122 3123 3124 3124 3125 3126 3126 3127 3127 3128 3128 3129 3130 3130 3130 3131 3131 3132 3133 3133 3134 3135 3135 3136 3137 3138 3138 3139 3139 3140 3140 3140 3140 3141 3141 3141 3142 3142 3142 3142 3142 3143 3143 3143 3143 3143 3143 3143 3144 3144 3144 3144 3144 3144 3144 3144 3145 3145 3145 3145 3145 3145 3145 3145 3145 3145 3145 3145 3145 3145 3145 3145 3145 3145 3145 3145 3145 3145 3145 3144 3144 3144 3144 3143 3143 3143 3142 3142 3142 3141 3141 3140 3140 3140 3139 3139 3138 3138 3137 3137 3136 3136
3121 3121 3122 3123 3124 3124 3125 3125 3126 3127 3127 3128 3128 3129 3130 3130 3130 3131 3131 3132 3133 3134 3134 3135 3136 3136 3137 3138 3138 3139 3139 3140 3140 3140 3140 3140 3141 3141 3141 3142 3142 3142 3142 3143 3143 3143 3143 3143 3143 3143 3144 3144 3144 3144 3144 3144 3144 3144 3144 3145 3145 3145 3145 3145 3145 3145 3145 3145 3145 3145 3145 3145 3145 3145 3145 3145 3145 3145 3145 3144 3144 3144 3144 3143 3143 3143 3142 3142 3142 3141 3141 3140 3140 3140 3139 3139 3138 3138 3137 3137 3136 3135 3135
3120 3121 3121 3122 3123 3124 3124 3125 3125 3126 3127 3127 3128 3128 3129 3129 3130 3130 3131 3131 3132 3133 3134 3135 3135 3136 3137 3137 3138 3138 3139 3139 3140 3140 3140 3140 3140 3141 3141 3141 3142 3142 3142 3142 3142 3143 3143 3143 3143 3143 3144 3144 3144 3144 3144 3144 3144 3144 3144 3144 3144 3145 3145 3145 3145 3145 3145 3145 3145 3145 3145 3145 3145 3145 3145 3145 3145 3145 3144 3144 3144 3143 3143 3143 3143 3142 3142 3141 3141 3141 3140 3140 3139 3139 3139 3138 3137 3137 3136 3136 3135 3135 3135
3119 3120 3121 3121 3122 3123 3124 3124 3125 3125 3126 3127 3127 3128 3128 3129 3129 3130 3130 3131 3132 3133 3133 3134 3135 3135 3136 3137 3137 3138 3138 3139 3139 3139 3140 3140 3140 3140 3140 3141 3141 3141 3141 3142 3142 3142 3142 3143 3143 3143 3143 3143 3144 3144 3143 3144 3144 3144 3144 3144 3144 3144 3145 3145 3145 3145 3145 3145 3145 3145 3145 3145 3145 3145 3145 3145 3144 3144 3144 3144 3143 3143 3143 3142 3142 3142 3141 3141 3140 3140 3140 3139 3139 3138 3138 3137 3137 3136 3136 3135 3135 3134 3134
3119 3119 3120 3121 3121 3122 3123 3124 3124 3125 3125 3126 3126 3127 3128 3128 3129 3129 3130 3130 3131 3132 3133 3134 3134 3135 3135 3136 3137 3137 3138 3138 3139 3139 3139 3139 3140 3140 3140 3140 3141 3141 3141 3141 3141 3142 3142 3142 3143 3143 3143 3143 3143 3143 3143 3143 3144 3144 3144 3144 3144 3144 3144 3144 3144 3145 3145 3145 3145 3145 3145 3145 3145 3145 3144 3144 3144 3144 3144 3143 3143 3143 3142 3142 3142 3141 3141 3140 3140 3140 3139 3139 3138 3138 3137 3137 3136 3136 3135 3135 3134 3134 3133
3118 3119 3119 3120 3120 3121 3122 3123 3123 3124 3125 3125 3126 3126 3127 3128 3128 3129 3130 3130 3131 3132 3132 3133 3134 3135 3135 3135 3136 3137 3137 3138 3138 3138 3139 3139 3139 3140 3140 3140 3140 3141 3141 3141 3141 3141 3141 3142 3142 3142 3143 3143 3143 3143 3143 3143 3143 3144 3144 3144 3144 3144 3144 3144 3144 3144 3144 3144 3144 3144 3144 3144 3144 3144 3144 3144 3144 3143 3143 3143 3142 3142 3142 3142 3141 3141 3140 3140 3140 3139 3139 3138 3138 3137 3137 3136 3136 3135 3135 3134 3134 3133 3132
3117 3118 3118 3119 3119 3120 3121 3122 3123 3123 3124 3125 3125 3126 3126 3127 3128 3128 3129 3130 3130 3131 3132 3133 3133 3134 3135 3135 3135 3136 3137 3137 3138 3138 3138 3138 3139 3139 3139 3140 3140 3140 3141 3141 3141 3141 3141 3141 3142 3142 3142 3143 3143 3143 3143 3143 3143 3143 3143 3143 3144 3144 3144 3144 3144 3144 3144 3144 3144 3144 3144 3144 3144 3144 3144 3143 3143 3143 3143 3142 3142 3142 3141 3141 3141 3140 3140 3140 3139 3139 3138 3138 3137 3137 3136 3136 3135 3135 3134 3134 3133 3132 3132
3116 3117 3117 3118 3119 3120 3120 3121 3122 3123 3123 3124 3125 3125 3126 3126 3127 3128 3128 3129 3130 3130 3131 3132 3133 3133 3134 3135 3135 3136 3136 3137 3137 3137 3138 3138 3138 3139 3139 3139 3140 3140 3140 3140 3140 3141 3141 3141 3142 3142 3142 3142 3142 3142 3143 3143 3143 3143 3143 3143 3143 3143 3143 3143 3143 3144 3144 3144 3143 3143 3143 3143 3143 3143 3143 3143 3143 3142 3142 3142 3141 3141 3141 3140 3140 3140 3140 3139 3139 3138 3138 3137 3137 3136 3135 3135 3135 3134 3133 3133 3132 3132 3131
3115 3116 3116 3117 3118 3119 3120 3121 3121 3122 3122 3123 3124 3124 3125 3126 3127 3127 3128 3128 3129 3130 3131 3132 3132 3133 3133 3134 3135 3135 3136 3136 3136 3137 3137 3138 3138 3138 3139 3139 3139 3140 3140 3140 3140 3140 3141 3141 3141 3142 3142 3142 3142 3142 3142 3142 3143 3143 3143 3143 3143 3143 3143 3143 3143 3143 3143 3143 3143 3143 3143 3143 3143 3143 3143 3142 3142 3142 3141 3141 3141 3141 3140 3140 3140 3140 3139 3139 3138 3138 3137 3137 3136 3135 3135 3134 3134 3133 3133 3132 3131 3131 3130
3114 3115 3115 3116 3118 3119 3119 3120 3120 3121 3122 3123 3123 3124 3125 3125 3126 3126 3127 3127 3129 3130 3130 3131 3132 3132 3133 3134 3134 3135 3135 3135 3136 3136 3137 3137 3137 3138 3138 3139 3139 3139 3139 3140 3140 3140 3140 3141 3141 3141 3142 3142 3142 3142 3142 3142 3142 3143 3143 3143 3143 3143 3143 3143 3143 3143 3143 3143 3143 3143 3143 3142 3142 3142 3142 3142 3142 3141 3141 3141 3140 3140 3140 3140 3139 3139 3139 3138 3138 3137 3136 3136 3135 3135 3134 3134 3133 3132 3132 3131 3130 3130 3129
3113 3114 3115 3116 3117 3118 3118 3119 3120 3120 3121 3122 3122 3123 3124 3125 3125 3125 3126 3127 3128 3129 3130 3130 3131 3132 3132 3133 3134 3134 3135 3135 3135 3136 3136 3136 3137 3138 3138 3138 3138 3139 3139 3139 3140 3140 3140 3140 3141 3141 3141 3141 3142 3142 3142 3142 3142 3142 3142 3142 3142 3142 3142 3142 3142 3142 3142 3142 3142 3142 3142 3142 3142 3142 3141 3141 3141 3141 3140 3140 3140 3140 3139 3139 3139 3138 3138 3137 3137 3136 3136 3135 3135 3134 3133 3133 3132 3131 3131 3130 3130 3129 3128
3112 3113 3114 3115 3116 3116 3117 3118 3119 3119 3120 3121 3121 3122 3123 3123 3124 3125 3125 3126 3127 3129 3129 3130 3130 3131 3132 3132 3133 3134 3134 3135 3135 3135 3135 3136 3137 3137 3137 3138 3138 3138 3138 3139 3139 3140 3140 3140 3140 3141 3141 3141 3141 3141 3142 3142 3142 3142 3142 3142 3142 3142 3142 3142 3142 3142 3142 3142 3142 3142 3142 3141 3141 3141 3141 3141 3140 3140 3140 3140 3139 3139 3139 3138 3138 3138 3137 3137 3136 3136 3135 3135 3134 3133 3133 3132 3131 3130 3130 3129 3129 3128 3127
3111 3112 3113 3114 3115 3115 3116 3117 3118 3118 3119 3120 3121 3122 3122 3122 3123 3124 3125 3126 3127 3128 3129 3130 3130 3131 3131 3132 3132 3133 3134 3134 3134 3135 3135 3136 3136 3137 3137 3137 3138 3138 3138 3138 3139 3139 3139 3140 3140 3140 3141 3141 3141 3141 3141 3141 3141 3142 3142 3141 3141 3141 3141 3141 3141 3141 3141 3141 3141 3141 3141 3141 3141 3141 3140 3140 3140 3140 3139 3139 3139 3138 3138 3138 3137 3137 3136 3136 3135 3135 3134 3134 3133 3132 3132 3131 3130 3130 3129 3128 3128 3127 3126
3111 3112 3112 3113 3114 3115 3115 3116 3117 3118 3118 3119 3120 3121 3121 3122 3122 3123 3125 3125 3127 3128 3128 3129 3130 3130 3131 3131 3132 3132 3133 3133 3134 3134 3135 3135 3136 3136 3137 3137 3137 3137 3138 3138 3138 3139 3139 3139 3140 3140 3140 3140 3140 3140 3141 3141 3141 3141 3141 3141 3141 3141 3141 3141 3141 3141 3141 3141 3141 3140 3140 3140 3140 3140 3140 3140 3139 3139 3139 3139 3138 3138 3137 3137 3137 3136 3136 3135 3135 3134 3134 3133 3132 3131 3131 3130 3130 3129 3128 3127 3127 3126 3125
3110 3111 3111 3112 3113 3114 3115 3115 3116 3117 3117 3118 3119 3120 3120 3121 3122 3123 3124 3125 3126 3127 3128 3128 3129 3130 3130 3131 3131 3132 3132 3133 3133 3134 3134 3135 3135 3136 3136 3136 3137 3137 3137 3138 3138 3138 3138 3139 3139 3140 3140 3140 3140 3140 3140 3140 3141 3141 3141 3141 3140 3140 3140 3140 3140 3140 3140 3140 3140 3140 3140 3140 3140 3140 3139 3139 3139 3138 3138 3138 3137 3137 3137 3136 3136 3135 3135 3135 3134 3133 3133 3132 3131 3131 3130 3129 3129 3128 3127 3126 3126 3125 3124
3109 3110 3110 3111 3112 3113 3114 3115 3115 3116 3117 3117 3118 3119 3120 3120 3121 3123 3124 3125 3125 3126 3127 3128 3128 3129 3130 3130 3131 3131 3132 3132 3133 3133 3134 3134 3135 3135 3136 3136 3136 3137 3137 3137 3137 3138 3138 3138 3139 3140 3140 3140 3140 3140 3140 3140 3140 3140 3140 3140 3140 3140 3140 3140 3140 3140 3140 3140 3140 3140 3139 3139 3139 3139 3139 3138 3138 3138 3137 3137 3137 3136 3136 3135 3135 3135 3134 3134 3133 3132 3132 3131 3130 3130 3129 3128 3128 3127 3126 3125 3125 3124 3123
3108 3109 3110 3110 3111 3112 3113 3114 3114 3115 3116 3117 3118 3119 3120 3120 3121 3122 3123 3124 3125 3126 3127 3127 3128 3129 3129 3130 3130 3131 3131 3132 3132 3133 3133 3134 3135 3135 3135 3136 3136 3136 3136 3137 3137 3137 3137 3138 3139 3139 3140 3139 3139 3139 3140 3140 3140 3140 3140 3140 3140 3140 3140 3140 3140 3139 3139 3139 3139 3139 3139 3139 3138 3138 3138 3138 3137 3137 3137 3136 3136 3135 3135 3135 3134 3134 3133 3133 3132 3132 3131 3130 3130 3129 3128 3127 3127 3126 3125 3125 3124 3123 3122
3107 3108 3109 3110 3110 3111 3112 3113 3114 3115 3115 3116 3117 3118 3119 3120 3121 3122 3123 3124 3125 3125 3126 3127 3127 3128 3129 3129 3130 3130 3131 3131 3132 3133 3133 3134 3134 3135 3135 3135 3135 3136 3136 3136 3136 3137 3137 3137 3138 3139 3139 3139 3139 3139 3139 3139 3139 3139 3139 3139 3139 3139 3139 3139 3139 3139 3139 3139 3138 3138 3138 3138 3138 3137 3137 3137 3136 3136 3136 3135 3135 3135 3134 3134 3133 3133 3132 3132 3131 3131 3130 3129 3129 3128 3127 3126 3125 3125 3124 3123 3123 3122 3121
3106 3107 3108 3109 3110 3111 3111 3112 3113 3114 3115 3115 3116 3117 3118 3120 3120 3121 3122 3123 3124 3125 3125 3126 3127 3127 3128 3129 3129 3130 3130 3131 3132 3132 3133 3133 3134 3134 3134 3135 3135 3135 3136 3136 3136 3136 3136 3137 3138 3138 3139 3138 3138 3138 3139 3139 3139 3139 3139 3139 3139 3139 3139 3139 3138 3138 3138 3138 3138 3138 3137 3137 3137 3137 3136 3136 3136 3135 3135 3135 3134 3134 3133 3133 3133 3132 3131 3131 3130 3130 3129 3128 3128 3127 3126 3125 3125 3124 3123 3122 3121 3120 3120
3106 3106 3107 3108 3109 3110 3111 3112 3112 3113 3114 3115 3115 3117 3118 3119 3120 3121 3122 3123 3124 3125 3125 3126 3126 3127 3128 3128 3129 3130 3130 3130 3131 3132 3132 3133 3133 3133 3134 3134 3135 3135 3135 3135 3136 3136 3136 3136 3137 3138 3138 3138 3138 3138 3138 3138 3138 3138 3138 3138 3138 3138 3138 3138 3138 3138 3137 3137 3137 3137 3137 3136 3136 3136 3135 3135 3135 3135 3134 3134 3133 3133 3133 3132 3132 3131 3131 3130 3130 3129 3128 3127 3127 3126 3125 3124 3124 3123 3122 3121 3120 3119 3118
3105 3106 3106 3107 3108 3110 3110 3111 3111 3112 3113 3114 3115 3116 3117 3118 3120 3120 3121 3122 3123 3124 3125 3125 3126 3126 3127 3128 3128 3129 3130 3130 3131 3131 3132 3132 3132 3133 3133 3134 3134 3135 3135 3135 3135 3135 3135 3136 3136 3137 3138 3137 3137 3137 3138 3138 3138 3138 3138 3138 3138 3138 3138 3137 3137 3137 3137 3136 3136 3136 3136 3135 3135 3135 3135 3135 3134 3134 3133 3133 3132 3132 3132 3131 3131 3130 3130 3129 3129 3128 3127 3126 3126 3125 3124 3123 3122 3122 3121 3120 3119 3118 3117
3105 3105 3105 3106 3108 3109 3110 3110 3111 3111 3112 3114 3115 3115 3117 3118 3119 3120 3121 3122 3123 3123 3124 3125 3125 3126 3126 3127 3128 3129 3129 3130 3130 3131 3131 3131 3132 3132 3133 3133 3134 3134 3134 3135 3135 3135 3135 3135 3136 3136 3137 3137 3137 3137 3137 3137 3137 3137 3137 3137 3137 3137 3137 3137 3136 3136 3136 3136 3135 3135 3135 3135 3135 3134 3134 3134 3133 3133 3133 3132 3132 3131 3131 3130 3130 3130 3129 3128 3127 3127 3126 3125 3125 3124 3123 3122 3121 3120 3120 3119 3118 3117 3116
3104 3105 3105 3105 3107 3108 3109 3110 3110 3111 3112 3113 3114 3115 3116 3117 3118 3119 3120 3121 3122 3123 3124 3124 3125 3125 3126 3127 3127 3128 3129 3129 3130 3130 3130 3131 3131 3132 3132 3133 3133 3134 3134 3134 3134 3135 3135 3135 3135 3136 3136 3137 3136 3136 3136 3136 3137 3137 3137 3137 3137 3136 3136 3136 3136 3136 3135 3135 3135 3135 3134 3134 3134 3134 3133 3133 3133 3132 3132 3131 3131 3130 3130 3130 3129 3128 3128 3127 3126 3126 3125 3124 3123 3122 3122 3121 3120 3119 3118 3117 3116 3115 3114
3103 3104 3104 3105 3106 3107 3109 3109 3110 3110 3111 3113 3114 3115 3115 3116 3117 3119 3120 3121 3121 3122 3123 3124 3124 3125 3125 3126 3127 3127 3128 3129 3129 3129 3130 3130 3131 3131 3132 3132 3133 3133 3133 3134 3134 3134 3134 3134 3135 3135 3135 3136 3136 3136 3136 3136 3136 3136 3136 3136 3136 3136 3136 3135 3135 3135 3135 3135 3134 3134 3134 3133 3133 3133 3133 3132 3132 3131 3131 3130 3130 3130 3129 3129 3128 3127 3127 3126 3125 3125 3124 3123 3122 3121 3120 3120 3119 3118 3117 3116 3115 3114 3113
3103 3103 3103 3104 3105 3107 3108 3109 3109 3110 3111 3112 3113 3114 3115 3116 3117 3118 3119 3120 3121 3122 3122 3123 3124 3125 3125 3126 3126 3127 3127 3128 3128 3129 3129 3130 3130 3131 3131 3132 3132 3132 3133 3133 3133 3133 3134 3134 3134 3134 3135 3135 3135 3135 3135 3135 3135 3135 3135 3135 3135 3135 3135 3135 3135 3135 3134 3134 3134 3133 3133 3133 3132 3132 3132 3131 3131 3131 3130 3130 3129 3129 3128 3128 3127 3126 3126 3125 3124 3123 3123 3122 3121 3120 3119 3118 3117 3116 3115 3114 3113 3112 3111
3102 3102 3103 3104 3105 3106 3107 3108 3108 3109 3110 3111 3112 3113 3114 3115 3116 3117 3119 3120 3120 3121 3121 3122 3123 3124 3125 3125 3125 3126 3127 3127 3128 3128 3129 3129 3130 3130 3131 3131 3131 3132 3132 3132 3133 3133 3133 3133 3133 3134 3134 3134 3135 3135 3135 3135 3135 3135 3135 3135 3135 3135 3135 3135 3134 3134 3134 3133 3133 3133 3132 3132 3132 3131 3131 3131 3130 3130 3129 3129 3128 3128 3127 3127 3126 3125 3125 3124 3123 3122 3121 3120 3120 3119 3118 3117 3116 3115 3114 3113 3112 3111 3110
3101 3101 3102 3103 3104 3105 3106 3107 3108 3109 3110 3111 3112 3113 3114 3115 3116 3117 3118 3119 3120 3120 3121 3122 3122 3123 3124 3124 3125 3125 3126 3126 3127 3127 3128 3129 3129 3130 3130 3130 3131 3131 3131 3132 3132 3132 3132 3132 3133 3133 3133 3133 3134 3134 3135 3135 3134 3134 3134 3134 3134 3134 3134 3134 3134 3133 3133 3133 3132 3132 3132 3131 3131 3130 3130 3130 3130 3129 3129 3128 3127 3127 3126 3125 3125 3124 3123 3123 3122 3121 3120 3119 3118 3117 3116 3115 3115 3114 3112 3111 3110 3109 3108
3100 3101 3102 3103 3104 3105 3105 3106 3107 3108 3109 3110 3111 3112 3113 3114 3115 3116 3117 3118 3119 3120 3120 3121 3122 3122 3123 3124 3124 3125 3125 3126 3126 3127 3127 3128 3128 3129 3130 3130 3130 3130 3131 3131 3131 3131 3131 3132 3132 3132 3132 3133 3133 3133 3134 3134 3134 3134 3133 3133 3133 3133 3133 3133 3133 3133 3132 3132 3132 3131 3131 3130 3130 3130 3130 3129 3129 3128 3128 3127 3126 3126 3125 3125 3124 3123 3122 3121 3120 3120 3119 3118 3117 3116 3115 3114 3113 3112 3111 3110 3109 3108 3107
3099 3100 3101 3102 3103 3104 3105 3105 3106 3107 3108 3109 3110 3111 3113 3114 3115 3115 3116 3117 3118 3119 3120 3120 3121 3122 3122 3123 3124 3124 3125 3125 3126 3126 3127 3127 3128 3128 3129 3129 3130 3130 3130 3130 3130 3130 3131 3131 3131 3132 3132 3132 3132 3132 3133 3133 3133 3133 3133 3133 3133 3133 3133 3133 3132 3132 3132 3131 3131 3130 3130 3130 3129 3129 3129 3128 3128 3127 3127 3126 3125 3125 3124 3123 3123 3122 3121 3120 3119 3118 3117 3116 3115 3115 3114 3113 3111 3110 3110 3108 3107 3106 3105
3099 3100 3100 3102 3103 3103 3104 3105 3106 3107 3108 3109 3110 3111 3112 3113 3114 3115 3116 3117 3117 3118 3119 3120 3120 3121 3122 3123 3123 3124 3124 3125 3125 3126 3126 3127 3127 3128 3128 3129 3129 3129 3130 3130 3130 3130 3130 3130 3131 3131 3131 3131 3131 3132 3132 3132 3132 3132 3132 3132 3132 3132 3132 3132 3132 3131 3131 3130 3130 3130 3129 3129 3129 3128 3128 3127 3127 3126 3126 3125 3124 3124 3123 3122 3121 3120 3120 3119 3118 3117 3116 3115 3114 3113 3112 3111 3110 3109 3108 3107 3105 3105 3104
3098 3099 3100 3101 3102 3103 3103 3104 3105 3106 3107 3108 3109 3110 3111 3112 3113 3114 3115 3116 3117 3117 3118 3119 3120 3120 3121 3122 3123 3123 3124 3124 3125 3125 3125 3126 3126 3127 3127 3128 3128 3128 3129 3129 3129 3129 3130 3130 3130 3130 3130 3130 3130 3131 3131 3131 3131 3131 3131 3131 3131 3131 3131 3131 3131 3130 3130 3130 3130 3129 3129 3128 3128 3127 3127 3126 3126 3125 3125 3124 3123 3122 3122 3121 3120 3119 3119 3118 3117 3115 3115 3114 3113 3112 3111 3110 3109 3107 3106 3105 3104 3103 3102
3097 3098 3099 3100 3101 3102 3103 3104 3105 3105 3106 3107 3108 3109 3110 3111 3112 3113 3114 3115 3116 3117 3117 3118 3119 3120 3121 3121 3122 3122 3123 3124 3124 3125 3125 3125 3126 3126 3126 3127 3127 3128 3128 3128 3128 3129 3129 3129 3129 3129 3130 3130 3130 3130 3130 3130 3130 3130 3130 3130 3130 3130 3130 3130 3130 3130 3130 3129 3129 3128 3128 3127 3127 3126 3126 3125 3125 3124 3123 3123 3122 3121 3120 3120 3119 3118 3117 3116 3115 3114 3113 3112 3111 3110 3109 3108 3107 3106 3105 3104 3102 3101 3100
3096 3098 3099 3100 3100 3101 3102 3103 3104 3105 3106 3107 3108 3109 3110 3110 3111 3113 3114 3115 3115 3116 3117 3118 3118 3119 3120 3120 3121 3122 3122 3123 3124 3124 3124 3125 3125 3125 3126 3126 3126 3127 3127 3127 3127 3128 3128 3128 3128 3129 3129 3129 3129 3129 3129 3129 3130 3130 3130 3130 3130 3130 3130 3129 3129 3129 3129 3128 3128 3127 3127 3126 3125 3125 3125 3124 3124 3123 3122 3121 3120 3120 3119 3118 3118 3117 3116 3115 3114 3113 3112 3111 3110 3109 3108 3106 3105 3104 3103 3102 3101 3100 3099
3096 3097 3098 3099 3100 3100 3101 3102 3103 3104 3105 3106 3107 3108 3109 3110 3111 3112 3113 3114 3115 3115 3116 3117 3118 3119 3119 3120 3120 3121 3121 3122 3123 3123 3124 3124 3125 3125 3125 3125 3126 3126 3126 3126 3127 3127 3127 3127 3128 3128 3128 3128 3128 3128 3128 3129 3129 3129 3129 3129 3129 3129 3129 3129 3128 3128 3128 3127 3127 3126 3126 3125 3125 3124 3123 3123 3122 3121 3121 3120 3119 3119 3118 3117 3116 3115 3115 3114 3113 3112 3111 3110 3109 3107 3106 3105 3104 3103 3102 3100 3099 3098 3097
3095 3096 3097 3098 3099 3100 3101 3101 3102 3103 3104 3105 3106 3107 3108 3109 3110 3111 3112 3113 3114 3115 3115 3116 3117 3118 3118 3119 3120 3120 3121 3121 3122 3123 3123 3124 3124 3124 3124 3125 3125 3125 3125 3125 3126 3126 3126 3126 3127 3127 3127 3127 3127 3127 3128 3128 3128 3128 3128 3128 3128 3128 3128 3128 3127 3127 3126 3126 3126 3125 3125 3124 3123 3123 3122 3121 3121 3120 3120 3119 3118 3117 3116 3116 3115 3114 3113 3112 3111 3110 3109 3108 3107 3106 3105 3104 3102 3101 3100 3099 3098 3096 3095
3095 3095 3096 3097 3098 3099 3100 3101 3102 3102 3103 3104 3105 3106 3107 3108 3109 3110 3111 3112 3113 3114 3115 3115 3116 3117 3118 3118 3119 3119 3120 3120 3121 3122 3122 3123 3123 3123 3124 3124 3124 3124 3125 3125 3125 3125 3125 3125 3126 3126 3126 3126 3126 3127 3127 3127 3127 3127 3127 3127 3127 3127 3127 3126 3126 3126 3125 3125 3125 3124 3124 3123 3122 3122 3121 3120 3120 3119 3118 3117 3117 3116 3115 3114 3114 3113 3112 3111 3110 3109 3108 3107 3106 3105 3103 3102 3101 3100 3098 3097 3096 3095 3094
3094 3095 3095 3096 3097 3098 3100 3100 3101 3102 3102 3103 3104 3105 3106 3107 3108 3109 3110 3112 3113 3113 3114 3115 3115 3116 3117 3117 3118 3119 3119 3120 3120 3121 3121 3122 3122 3123 3123 3123 3123 3124 3124 3124 3124 3124 3124 3125 3125 3125 3125 3125 3125 3126 3126 3126 3126 3126 3126 3126 3126 3126 3125 3125 3125 3125 3124 3124 3123 3123 3122 3122 3121 3120 3120 3119 3118 3118 3117 3116 3115 3115 3114 3113 3112 3111 3110 3110 3109 3107 3106 3105 3104 3103 3102 3100 3099 3098 3097 3095 3094 3093 3092
3093 3094 3095 3096 3097 3098 3099 3100 3100 3101 3102 3102 3103 3104 3105 3106 3107 3108 3110 3111 3112 3112 3113 3114 3115 3115 3116 3116 3117 3118 3119 3119 3120 3120 3120 3121 3121 3122 3122 3122 3122 3123 3123 3123 3123 3123 3123 3124 3124 3124 3124 3125 3125 3125 3125 3125 3125 3125 3125 3125 3125 3125 3124 3124 3124 3123 3123 3123 3122 3121 3121 3120 3120 3119 3119 3118 3117 3116 3116 3115 3114 3113 3112 3111 3110 3110 3109 3108 3107 3106 3105 3104 3102 3101 3100 3099 3097 3096 3095 3094 3092 3091 3090
3092 3093 3094 3095 3096 3097 3098 3099 3100 3100 3101 3101 3102 3103 3104 3105 3106 3108 3109 3110 3111 3111 3112 3113 3114 3114 3115 3115 3116 3117 3118 3118 3119 3119 3120 3120 3120 3121 3121 3121 3122 3122 3122 3122 3122 3122 3123 3123 3123 3123 3124 3124 3124 3124 3124 3124 3124 3124 3124 3124 3124 3124 3123 3123 3123 3122 3122 3121 3121 3120 3120 3119 3119 3118 3117 3117 3116 3115 3115 3114 3113 3112 3111 3110 3109 3108 3107 3106 3105 3104 3103 3102 3101 3100 3098 3097 3096 3095 3093 3092 3091 3089 3088
3091 3092 3093 3094 3095 3096 3097 3098 3099 3099 3100 3101 3101 3102 3104 3105 3106 3107 3108 3109 3110 3110 3111 3112 3113 3113 3114 3115 3115 3116 3117 3117 3118 3118 3119 3119 3120 3120 3120 3120 3121 3121 3121 3121 3121 3121 3122 3122 3122 3122 3123 3123 3123 3123 3123 3123 3123 3123 3123 3123 3122 3122 3122 3122 3121 3121 3120 3120 3120 3119 3118 3118 3117 3117 3116 3115 3115 3114 3113 3113 3112 3111 3110 3109 3108 3107 3106 3105 3104 3103 3102 3100 3099 3098 3097 3095 3094 3093 3092 3090 3089 3088 3086
3090 3091 3092 3093 3094 3095 3096 3097 3098 3099 3099 3100 3101 3102 3103 3104 3105 3106 3107 3108 3109 3110 3110 3111 3112 3112 3113 3114 3115 3115 3116 3116 3117 3117 3118 3118 3119 3119 3120 3120 3120 3120 3120 3120 3120 3121 3121 3121 3121 3122 3122 3122 3122 3122 3122 3122 3122 3122 3122 3121 3121 3121 3121 3120 3120 3120 3119 3119 3118 3118 3117 3116 3116 3115 3115 3114 3113 3113 3112 3111 3110 3109 3108 3107 3107 3106 3105 3104 3103 3102 3100 3099 3098 3096 3095 3094 3093 3091 3090 3089 3087 3086 3084
3090 3090 3092 3093 3094 3095 3096 3096 3097 3098 3098 3099 3100 3101 3102 3103 3104 3105 3106 3107 3108 3109 3109 3110 3111 3111 3112 3113 3114 3115 3115 3115 3116 3116 3117 3117 3118 3118 3119 3119 3119 3119 3119 3120 3120 3120 3120 3120 3121 3121 3121 3121 3121 3121 3121 3121 3121 3121 3121 3120 3120 3120 3120 3120 3119 3119 3118 3118 3117 3116 3116 3115 3115 3114 3113 3113 3112 3111 3110 3110 3109 3108 3107 3106 3105 3104 3103 3102 3101 3100 3099 3098 3096 3095 3093 3092 3091 3090 3088 3087 3085 3084 3082
3089 3090 3091 3092 3093 3094 3095 3095 3096 3097 3097 3098 3099 3100 3101 3103 3104 3104 3105 3106 3107 3108 3109 3109 3110 3110 3111 3112 3113 3114 3115 3115 3115 3115 3116 3116 3117 3118 3118 3118 3118 3118 3118 3119 3119 3119 3120 3120 3120 3120 3120 3120 3120 3120 3120 3120 3120 3120 3120 3119 3119 3119 3119 3118 3118 3117 3117 3116 3116 3115 3115 3114 3113 3113 3112 3111 3111 3110 3109 3108 3107 3106 3105 3104 3103 3102 3101 3100 3100 3099 3098 3096 3094 3093 3091 3090 3089 3087 3086 3085 3083 3082 3080
3088 3089 3090 3092 3093 3094 3094 3095 3095 3096 3096 3097 3098 3099 3100 3102 3103 3103 3104 3105 3106 3107 3108 3109 3109 3110 3110 3111 3112 3113 3114 3114 3114 3114 3115 3115 3116 3117 3117 3117 3117 3117 3118 3118 3118 3118 3118 3119 3119 3120 3120 3120 3120 3120 3119 3119 3119 3119 3119 3118 3118 3118 3117 3117 3116 3116 3115 3115 3115 3114 3113 3113 3112 3111 3111 3110 3109 3108 3107 3106 3105 3104 3103 3102 3101 3100 3100 3099 3098 3097 3096 3094 3092 3091 3090 3088 3087 3085 3084 3083 3081 3080 3078
3088 3089 3090 3091 3092 3093 3093 3094 3094 3095 3096 3096 3097 3099 3100 3101 3102 3103 3104 3105 3106 3107 3107 3108 3108 3109 3110 3111 3112 3112 3112 3113 3113 3114 3114 3115 3115 3115 3116 3116 3116 3116 3117 3117 3117 3117 3117 3118 3118 3119 3119 3119 3119 3118 3118 3118 3118 3118 3117 3117 3117 3116 3116 3115 3115 3115 3114 3114 3113 3112 3112 3111 3110 3110 3109 3109 3108 3107 3106 3105 3104 3103 3102 3101 3100 3099 3098 3097 3096 3095 3094 3092 3091 3089 3088 3086 3085 3084 3082 3081 3080 3078 3076
3087 3088 3089 3090 3091 3092 3093 3093 3094 3094 3095 3096 3097 3098 3099 3100 3101 3102 3103 3104 3105 3106 3106 3107 3107 3108 3109 3110 3111 3111 3111 3112 3112 3113 3113 3114 3114 3115 3115 3115 3115 3115 3116 3116 3116 3116 3116 3117 3117 3117 3117 3117 3117 3117 3117 3117 3117 3116 3116 3116 3115 3115 3115 3114 3114 3113 3113 3112 3112 3111 3110 3110 3109 3108 3108 3107 3106 3105 3104 3103 3102 3101 3100 3099 3098 3097 3096 3095 3095 3094 3092 3090 3089 3087 3086 3085 3084 3082 3081 3079 3078 3076 3075
3086 3087 3088 3090 3090 3091 3092 3092 3093 3094 3094 3095 3096 3097 3099 3100 3101 3101 3103 3104 3105 3105 3106 3106 3107 3108 3109 3110 3110 3110 3110 3111 3111 3112 3113 3113 3113 3114 3114 3114 3115 3115 3115 3115 3115 3115 3116 3117 3117 3116 3116 3116 3116 3116 3116 3116 3115 3115 3115 3115 3114 3114 3113 3113 3113 3112 3112 3111 3110 3110 3109 3108 3107 3107 3106 3105 3105 3104 3103 3101 3100 3100 3098 3097 3096 3095 3094 3094 3093 3092 3090 3089 3087 3086 3085 3083 3082 3081 3079 3078 3076 3075 3073
3085 3086 3087 3089 3090 3090 3091 3092 3092 3093 3094 3095 3096 3097 3098 3099 3100 3101 3102 3103 3104 3105 3105 3105 3106 3107 3108 3109 3109 3110 3110 3110 3111 3111 3112 3112 3112 3113 3113 3113 3114 3114 3114 3113 3114 3114 3115 3115 3116 3115 3115 3115 3115 3115 3115 3114 3114 3114 3113 3113 3113 3112 3112 3111 3111 3111 3110 3110 3109 3108 3107 3107 3106 3105 3105 3104 3103 3102 3101 3100 3099 3098 3097 3095 3094 3093 3092 3092 3091 3090 3089 3087 3086 3085 3083 3082 3081 3079 3078 3076 3075 3073 3071
3084 3085 3086 3088 3089 3090 3090 3091 3092 3092 3093 3094 3095 3096 3098 3099 3099 3100 3101 3102 3103 3104 3104 3105 3106 3106 3107 3108 3109 3109 3109 3110 3110 3110 3111 3111 3111 3112 3112 3112 3113 3113 3113 3112 3113 3113 3113 3114 3115 3115 3115 3115 3115 3115 3114 3113 3113 3112 3112 3112 3111 3111 3111 3110 3110 3109 3109 3108 3107 3107 3106 3105 3105 3104 3104 3103 3102 3101 3100 3099 3097 3096 3095 3094 3093 3091 3090 3090 3090 3089 3087 3085 3084 3083 3082 3081 3080 3078 3076 3074 3072 3071 3069
3083 3085 3085 3087 3088 3089 3090 3090 3091 3092 3093 3094 3095 3096 3097 3098 3099 3100 3101 3102 3102 3103 3104 3105 3105 3106 3107 3107 3108 3108 3109 3109 3110 3110 3110 3110 3111 3111 3111 3112 3112 3112 3112 3112 3112 3112 3112 3112 3113 3113 3113 3113 3113 3113 3113 3112 3111 3111 3110 3110 3110 3110 3109 3109 3108 3108 3107 3107 3106 3105 3105 3104 3103 3103 3102 3101 3101 3100 3098 3097 3096 3095 3093 3092 3091 3090 3089 3088 3088 3087 3085 3084 3083 3082 3080 3079 3078 3076 3075 3073 3070 3069 3067
3083 3084 3085 3085 3087 3088 3089 3090 3091 3092 3092 3093 3094 3095 3097 3098 3099 3100 3100 3101 3102 3102 3103 3104 3105 3105 3106 3107 3107 3108 3108 3108 3109 3109 3109 3110 3110 3110 3110 3111 3111 3111 3111 3111 3111 3111 3111 3111 3111 3111 3111 3111 3111 3111 3111 3111 3110 3110 3109 3109 3109 3108 3108 3107 3107 3106 3106 3105 3105 3104 3104 3103 3102 3101 3100 3100 3099 3098 3097 3095 3094 3093 3092 3091 3090 3089 3088 3087 3086 3085 3084 3082 3081 3080 3079 3078 3076 3075 3073 3071 3069 3067 3065
3082 3083 3084 3085 3086 3087 3089 3090 3090 3091 3092 3093 3094 3095 3096 3097 3098 3099 3100 3100 3101 3101 3102 3103 3104 3105 3105 3106 3106 3107 3107 3108 3108 3108 3109 3109 3109 3109 3110 3110 3110 3110 3110 3110 3110 3110 3110 3110 3110 3110 3110 3110 3110 3110 3110 3109 3109 3109 3108 3108 3107 3107 3106 3106 3105 3105 3105 3104 3103 3103 3102 3101 3100 3100 3099 3098 3097 3096 3095 3094 3093 3092 3090 3090 3089 3088 3087 3086 3085 3083 3082 3080 3079 3078 3077 3076 3075 3073 3071 3069 3067 3065 3063
3081 3082 3083 3084 3085 3086 3088 3089 3090 3090 3091 3092 3094 3095 3096 3097 3098 3099 3099 3100 3100 3101 3101 3102 3103 3104 3105 3105 3105 3106 3106 3107 3107 3107 3108 3108 3108 3109 3109 3109 3110 3110 3110 3110 3110 3110 3110 3110 3110 3109 3109 3109 3109 3108 3108 3107 3107 3107 3107 3107 3106 3106 3105 3104 3104 3104 3103 3102 3102 3101 3100 3099 3099 3098 3097 3096 3095 3094 3094 3093 3092 3091 3090 3088 3087 3087 3086 3085 3083 3082 3080 3079 3077 3076 3075 3074 3073 3072 3070 3068 3065 3063 3061